Regional Weather Roundup
Issued by NWS

Home | Current Version | Previous Version | Graphics & Text | Print | Product List | Glossary On
Versions: 1 2 3 4 5 6 7 8 9 10 11 12 13 14 15 16 17 18 19 20 21 22 23 24 25 26 27 28 29 30 31 32 33 34 35 36 37 38 39 40 41 42 43 44 45 46 47 48 49 50
000
ASUS43 KMKX 200900
RWRWI

WISCONSIN REGIONAL WEATHER ROUNDUP
NATIONAL WEATHER SERVICE MILWAUKEE/SULLIVAN WI
400 AM CDT SUN AUG 20 2017

NOTE: "FAIR" INDICATES FEW OR NO CLOUDS BELOW 12,000 FEET WITH NO
SIGNIFICANT WEATHER AND/OR OBSTRUCTIONS TO VISIBILITY.

WIZ001-002-006>008-014>016-023>028-201000-
NORTHWEST WISCONSIN

CITY           SKY/WX    TMP DP  RH WIND       PRES   REMARKS
SUPERIOR ARPT  FOG       53  53 100 CALM      29.85F VSB 1/4
ASHLAND        FOG       54  54 100 S3        29.88F VSB 1/4
HAYWARD        CLEAR     54  52  93 CALM      29.91S
SIREN          CLEAR     62  60  94 SE5       29.88F
CUMBERLAND     CLEAR     55  54  94 CALM      29.91F FOG
RICE LAKE      CLEAR     60  59  97 SE3       29.93R FOG
CHETEK         CLEAR     58  58 100 CALM      29.92S
LADYSMITH      CLEAR     59  58  95 E3        29.94F
EAU CLAIRE     CLOUDY    59  58  96 CALM      29.92R
MENOMONIE      CLOUDY    60  59  98 CALM      29.92R
NEW RICHMOND   CLOUDY    61  61  98 CALM      29.90R
OSCEOLA        PTCLDY    63  63 100 S3        29.92R
$$

WIZ003>005-009-010-017-018-201000-
NORTH CENTRAL WISCONSIN

CITY           SKY/WX    TMP DP  RH WIND       PRES   REMARKS
MANITOWISH WTR FOG       51  51 100 CALM      29.95S VSB 3/4
ARBOR VITAE    CLEAR     57  55  95 CALM      29.95F
WOODRUFF       CLEAR     57  55  95 CALM      29.95F
RHINELANDER    FOG       53  53 100 CALM      29.97S VSB 1/2
EAGLE RIVER    MOCLDY    54  54 100 CALM      29.96S FOG
LAND O LAKES   FOG       51  51 100 CALM      29.97F VSB 3/4
PHILLIPS       CLEAR     56  56 100 CALM      29.94S FOG
TOMAHAWK         N/A     50  49  97 CALM      29.96F FOG
MEDFORD        CLEAR     56  55  97 CALM      29.95F
MERRILL        NOT AVBL
$$

WIZ029-030-035-036-043>047-201000-
CENTRAL WISCONSIN

CITY           SKY/WX    TMP DP  RH WIND       PRES   REMARKS
WAUSAU         CLEAR     56  56 100 E5        29.95S
MOSINEE        CLEAR     54  54 100 SE3       29.97F
MARSHFIELD     CLEAR     58  55  90 S6        29.97R
STEVENS POINT  CLEAR     53  53 100 CALM      29.97F
WAUPACA        CLEAR     58  57  97 CALM      29.97S
WAUTOMA        CLEAR     55  54  96 CALM      29.99R
WISC RAPIDS    CLEAR     58  56  93 SW3       29.98R
CAMP DOUGLAS   PTCLDY    58  58 100 CALM      29.97R
$$

WIZ011>013-019>022-031-037>040-048>050-201000-
NORTHEAST WISCONSIN

CITY           SKY/WX    TMP DP  RH WIND       PRES   REMARKS
ANTIGO         CLEAR     52  52 100 CALM      29.98S
SHAWANO          N/A     59  58  95 CALM      29.96S FOG
OCONTO         CLEAR     56  55  98 CALM      29.95S
STURGEON BAY   NOT AVBL
GREEN BAY      CLEAR     58  58 100 W3        29.96F FOG
MANITOWOC      NOT AVBL
APPLETON       CLEAR     61  54  77 CALM      29.95F
CLINTONVILLE   FOG       55  55 100 CALM      29.96F VSB 3/4
OSHKOSH        CLEAR     61  59  93 CALM      29.97S
$$

WIZ032>034-041-042-053>061-201000-
SOUTHWEST WISCONSIN

CITY           SKY/WX    TMP DP  RH WIND       PRES   REMARKS
LA CROSSE      CLOUDY    65  61  87 SE5       29.95R
SPARTA         CLOUDY    52  52  99 CALM      29.97R
VIROQUA        CLOUDY    63  61  96 CALM      29.97R
BOSCOBEL       FOG       61  60  97 CALM      29.97R VSB 1/4
PRAIRIE DU CHI CLOUDY    60  58  94 E6        29.96R
PLATTEVILLE    CLOUDY    63  62  99 SE5       29.98R
$$

WIZ056-057-062-063-064-067-068-201000-
SOUTH CENTRAL WISCONSIN

CITY           SKY/WX    TMP DP  RH WIND       PRES   REMARKS
REEDSBURG      CLEAR     57  57 100 CALM      29.97R
BARABOO/DELLS  CLEAR     60  57  92 S3        29.98R
LONE ROCK      NOT AVBL
MINERAL POINT  CLEAR     63  63 100 SE5       29.99R
MADISON        CLEAR     60  59  96 CALM      29.99R
MIDDLETON      CLEAR     58  58 100 CALM      29.99R
WATERTOWN      CLEAR     60  60 100 CALM      29.98F
MONROE         CLEAR     63  59  88 S8        29.99R
JANESVILLE     CLEAR     61  61 100 CALM      29.98S
$$

WIZ051-052-058>065-066-070>072-201000-
SOUTHEAST WISCONSIN

CITY           SKY/WX    TMP DP  RH WIND       PRES   REMARKS
MILWAUKEE      CLEAR     64  58  80 SW3       29.99F
WAUKESHA       CLEAR     59  55  88 CALM      30.00F
MILWAUKEE/TIMM CLEAR     61  57  88 CALM      29.99F
RACINE         CLEAR     62  58  86 MISG      30.01S
KENOSHA        CLEAR     58  56  93 CALM      30.00F
FOND DU LAC    LGT RAIN  61  57  87 S5        29.98S
SHEBOYGAN      CLEAR     60  60 100 SW3       29.98F
WEST BEND      FOG       55  55 100 CALM      29.99F VSB 3/4
JUNEAU         CLEAR     60  59  96 CALM      29.99F
$$

LSZ147-162-201000-
LAKE SUPERIOR

STATION/POSITION TIME  TEMP    WIND        PRES    WAVE
                       AIR SEA DIR/SP/G            HT/PER
                 (UTC) (F)     (DEG/KT/KT) (MB)    (FT/S)
W MID LAKE BUOY  0750   63 60  220/ 10/ 12 1011.2R   1
DEVILS ISLAND    0800   68     190/  7/  9 1011.3S
SAXON HARBOR     0840   64     200/  7/  8 1011.5F
$$

LMZ867-665-643>646-201000-
LAKE MICHIGAN

STATION/POSITION TIME  TEMP    WIND        PRES    WAVE
                       AIR SEA DIR/SP/G            HT/PER
                 (UTC) (F)     (DEG/KT/KT) (MB)    (FT/S)
S GREEN BAY BUOY 0630   71 71  230/  8/ 10 1014.2R
N MID LAKE BUOY  0750   69 67  240/ 12/ 14 1014.1R   2/ 4
NORTHPORT PIER   0840   67     250/  2/  5 1013.9S
KEWAUNEE LAKESHO 0830   65     290/  3/  4 1013.8F
SHEBOYGAN LAKESH 0800   68     250/  6/  7 1014.8S
PORT WASHINGTON  0830   65      CALM  /  2 1015.9F
ATWATER BUOY     0709   71 70  190/  6/  6 1015.8R
MILWAUKEE LAKESH 0830   70     230/  6/  7   N/A
S MID LAKE BUOY  0750   72 71  160/  6/  6 1015.8S   1
KENOSHA   LAKESH 0800   69     210/  5/  5 1015.6
$$

TC  - TEMPERATURE IN CELSIUS
VSB - VISIBILITY IN STATUTE MILES
WCI - WIND CHILL INDEX
HX  - HEAT INDEX





USA.gov is the U.S. government's official web portal to all federal, state and local government web resources and services.